Location: Feigenhofen
(48.4939°N, 10.7793°E)
Time: 23:29:30
(UTC+00:00)

USA 307 - Pass Details

Date: 26 May 2022
Orbit: 552 x 554 km, 54.0° (Epoch: 17 June)

Event Time Altitude Azimuth Distance (km) Brightness Sun altitude
Exits shadow 01:47:50 10° 262° (W) 1,861 5.1 -12.4°
Reaches altitude 10° 01:47:54 10° 262° (W) 1,838 5.1 -12.4°
Maximum altitude 01:52:00 55° 341° (NNW) 676 3.5 -12.0°
Drops below altitude 10° 01:56:07 10° 60° (ENE) 1,846 6.7 -11.5°
Sets 01:58:24 0° 65° (ENE) 2,743 7.7 -11.3°
